Regen radar Meer informatie rain snow radar


Bezoek ook deze websites:

Template documentation
and downloads

And another site



Select another period ( hide this area )

Eenheden Periode Custom range Directly to
Metrisch Engels Beide
Dagelijkse Wekelijkse Maandelijkse Jaarlijkse
use both date-selectors for a custom range
previous Dag
With this date

WeatherUnderground graphs for this period ( click here )


Dagelijkse Samenvatting Woensdag 22 september 2021
Tijd Temp. ( °C ) Dew pt. ( °C ) Wind ( km/h ) van Windvlaag ( km/h ) Luchtdruk ( hPa ) Humid.( % ) Rainrate ( cm ) Zonneschijn ( W/m2 )
Hoog21,7 12,2 11,0 ZW ( 338/699 ) 16,0 1030,8 97 - 629
Gemiddeld13,8 9,7 2,6 Kalm #147/270 4,1 1028,3 79 - 296 #147/270
Laag6,8 6,1 -   0,0 1024,4 54 -  
Dagelijkse Tabular details for Woensdag 22 september 2021
Tijd Temp. ( °C ) Dew pt. ( °C ) Wind ( km/h ) van Windvlaag ( km/h ) Luchtdruk ( hPa ) Humid.( % ) Rainrate ( cm ) Zonneschijn ( W/m2 )
00:04 10,3 8,6   Kalm   1030,8 89 - -
00:09 10,3 8,6   Kalm   1030,8 90 - -
00:14 10,2 8,6   Kalm   1030,5 90 - -
00:19 10,2 8,6   Kalm   1030,5 90 - -
00:24 10,1 8,5   Kalm   1030,5 90 - -
00:29 10,1 8,5   Kalm   1030,5 90 - -
00:34 9,9 8,5   Kalm   1030,5 91 - -
00:39 9,9 8,5   Kalm   1030,5 91 - -
00:44 9,8 8,4   Kalm   1030,5 91 - -
00:48 9,7 8,3   Kalm   1030,5 91 - -
00:54 9,7 8,3   Kalm   1030,5 91 - -
00:59 9,7 8,4   Kalm   1030,5 92 - -
01:04 9,6 8,2   Kalm   1030,5 91 - -
01:09 9,6 8,3   Kalm   1030,5 92 - -
01:14 9,4 8,2   Kalm   1030,5 92 - -
01:19 9,4 8,2   Kalm   1030,5 92 - -
01:24 9,3 8,1   Kalm   1030,5 92 - -
01:29 9,3 8,1   Kalm   1030,5 92 - -
01:34 9,3 8,1   Kalm   1030,5 92 - -
01:39 9,3 8,1   Kalm   1030,5 92 - -
01:44 9,2 8,1   Kalm   1030,1 93 - -
01:49 9,2 8,1   Kalm   1030,1 93 - -
01:54 9,1 7,9   Kalm   1030,1 92 - -
01:59 9,0 7,9   Kalm   1030,1 93 - -
02:04 8,9 7,8   Kalm   1029,8 93 - -
02:09 8,9 7,8   Kalm   1029,8 93 - -
02:14 8,9 7,8   Kalm   1030,1 93 - -
02:19 8,8 7,7   Kalm   1029,8 93 - -
02:24 8,8 7,7   Kalm   1029,8 93 - -
02:29 8,8 7,7   Kalm   1030,1 93 - -
02:34 8,7 7,6   Kalm   1029,8 93 - -
02:39 8,7 7,8   Kalm   1029,8 94 - -
02:44 8,6 7,7   Kalm   1029,8 94 - -
02:49 8,6 7,5   Kalm   1029,8 93 - -
02:54 8,4 7,5   Kalm   1029,8 94 - -
02:59 8,4 7,5   Kalm   1029,8 94 - -
03:04 8,4 7,5   Kalm   1029,8 94 - -
03:09 8,4 7,5   Kalm   1030,1 94 - -
03:14 8,3 7,4   Kalm   1030,1 94 - -
03:19 8,2 7,3   Kalm   1030,1 94 - -
03:24 8,2 7,3   Kalm   1030,1 94 - -
03:29 8,2 7,3   Kalm   1030,1 94 - -
03:34 8,1 7,2   Kalm   1030,1 94 - -
03:39 8,0 7,1   Kalm   1030,1 94 - -
03:44 7,9 7,0   Kalm   1029,8 94 - -
03:49 7,9 7,0   Kalm   1029,8 94 - -
03:54 7,9 7,0   Kalm   1029,8 94 - -
03:59 7,8 6,9   Kalm   1029,8 94 - -
04:04 7,8 6,9   Kalm   1029,8 94 - -
04:09 7,7 6,8   Kalm   1029,8 94 - -
04:14 7,7 6,8   Kalm   1029,8 94 - -
04:19 7,6 6,7   Kalm   1029,8 94 - -
04:24 7,6 6,7   Kalm   1029,8 94 - -
04:29 7,6 6,9   Kalm   1029,8 95 - -
04:34 7,5 6,8   Kalm   1029,8 95 - -
04:39 7,5 6,8   Kalm   1029,8 95 - -
04:44 7,6 6,9   Kalm   1029,5 95 - -
04:49 7,6 6,9   Kalm   1029,8 95 - -
04:54 7,5 6,8   Kalm   1029,5 95 - -
04:59 7,5 6,8   Kalm   1029,5 95 - -
05:04 7,6 6,9   Kalm   1029,5 95 - -
05:09 7,7 6,9   Kalm   1029,5 95 - -
05:14 7,6 6,9   Kalm   1029,5 95 - -
05:19 7,7 6,9   Kalm   1029,5 95 - -
05:24 7,7 6,9   Kalm   1029,5 95 - -
05:29 7,7 6,9   Kalm   1029,5 95 - -
05:34 7,6 6,9   Kalm   1029,5 95 - -
05:38 7,5 6,8   Kalm   1029,5 95 - -
05:44 7,5 6,8   Kalm   1029,5 95 - -
05:49 7,5 6,8   Kalm   1029,5 95 - -
05:54 7,5 6,8   Kalm   1029,5 95 - -
05:59 7,5 6,8   Kalm   1029,5 95 - -
06:04 7,4 6,7   Kalm   1029,5 95 - -
06:09 7,4 6,7   Kalm   1029,5 95 - -
06:14 7,4 6,8   Kalm   1029,5 96 - -
06:19 7,4 6,7   Kalm   1029,5 95 - -
06:23 7,3 6,6   Kalm   1029,5 95 - -
06:29 7,3 6,6   Kalm   1029,5 95 - -
06:34 7,4 6,8   Kalm   1029,5 96 - -
06:39 7,5 6,9   Kalm   1029,5 96 - -
06:44 7,6 7,0 3,0 WNW 3,0 1029,1 96 - -
06:49 7,6 7,0 3,0 WNW 3,0 1029,5 96 - -
06:54 7,6 7,0 3,0 WNW 3,0 1029,1 96 - -
06:59 7,5 6,9 1,0 WNW 2,0 1029,1 96 - -
07:04 7,4 6,7   Kalm 2,0 1029,5 95 - -
07:09 7,3 6,6   Kalm   1029,5 95 - -
07:14 7,3 6,6   Kalm   1029,5 95 - -
07:19 7,2 6,6   Kalm   1029,5 96 - -
07:24 7,2 6,6   Kalm   1029,5 96 - -
07:29 7,1 6,5   Kalm   1029,5 96 - -
07:34 7,1 6,5   Kalm   1029,5 96 - -
07:39 7,0 6,3   Kalm   1029,5 95 - 5
07:44 6,9 6,2   Kalm   1029,5 95 - 7
07:49 6,9 6,2   Kalm   1029,5 95 - 12
07:54 6,8 6,1   Kalm   1029,5 95 - 16
07:59 6,9 6,3   Kalm   1029,8 96 - 21
08:04 7,0 6,4 1,0 WNW 2,0 1029,8 96 - 26
08:09 7,1 6,5   Kalm 2,0 1029,8 96 - 33
08:14 7,2 6,6   Kalm   1029,5 96 - 46
08:19 7,4 7,0   Kalm   1029,5 97 - 56
08:24 7,7 7,3   Kalm   1029,5 97 - 60
08:29 7,9 7,5   Kalm   1029,5 97 - 63
08:34 8,1 7,7   Kalm   1029,5 97 - 83
08:39 8,4 8,0   Kalm   1029,5 97 - 104
08:44 8,8 8,3   Kalm   1029,5 97 - 118
08:49 8,9 8,4   Kalm   1029,5 97 - 137
08:54 9,2 8,7   Kalm   1029,5 97 - 165
08:59 9,4 8,9   Kalm   1029,5 97 - 167
09:04 9,7 9,2   Kalm   1029,5 97 - 178
09:09 9,9 9,4   Kalm 2,0 1029,5 97 - 169
09:14 10,2 9,7   Kalm 2,0 1029,5 97 - 181
09:19 10,4 9,9   Kalm   1029,5 97 - 186
09:24 10,7 10,1   Kalm   1029,5 97 - 218
09:29 10,9 10,3   Kalm   1029,5 96 - 241
09:34 11,2 10,6   Kalm   1029,5 96 - 218
09:39 11,5 10,7   Kalm   1029,5 96 - 200
09:44 11,7 10,8   Kalm   1029,8 95 - 192
09:49 12,1 11,2   Kalm   1029,8 94 - 206
09:54 12,3 11,2   Kalm   1029,8 93 - 241
09:59 12,6 11,2 3,0 ZW 3,0 1029,5 92 - 267
10:04 12,8 11,2 3,0 ZW 5,0 1029,5 91 - 218
10:09 13,1 11,0 3,0 ZW 5,0 1029,8 88 - 227
10:14 13,3 11,2 1,0 ZW 3,0 1029,5 87 - 278
10:19 13,7 11,6 5,0 ZW 5,0 1029,8 87 - 285
10:24 13,9 11,4 5,0 ZW 6,0 1029,8 85 - 232
10:29 14,2 11,5 3,0 ZW 5,0 1029,8 84 - 239
10:34 14,4 11,7 1,0 ZW 5,0 1029,8 84 - 360
10:39 14,7 11,8 5,0 ZW 5,0 1029,8 84 - 304
10:44 14,9 11,5 3,0 ZW 5,0 1029,8 81 - 380
10:49 15,3 11,7 3,0 ZW 5,0 1029,8 80 - 396
10:54 15,5 11,6 6,0 WZW 8,0 1029,8 78 - 343
10:59 15,7 11,5 3,0 WZW 8,0 1029,5 76 - 443
11:04 16,1 11,9 5,0 WZW 8,0 1029,5 76 - 501
11:09 16,4 11,8 8,0 ZW 11,0 1029,5 75 - 506
11:14 16,7 11,6 8,0 WZW 11,0 1029,5 72 - 432
11:19 16,8 11,6 8,0 ZZW 10,0 1029,5 72 - 475
11:24 17,0 11,5 5,0 ZW 11,0 1029,8 70 - 446
11:29 17,3 12,0 6,0 ZW 6,0 1029,5 71 - 468
11:34 17,6 11,9 8,0 WZW 11,0 1029,8 70 - 457
11:39 17,7 11,7 8,0 ZW 10,0 1029,8 68 - 443
11:44 17,8 11,6 8,0 WZW 11,0 1029,5 67 - 417
11:49 17,8 11,6 8,0 ZW 8,0 1029,5 67 - 418
11:54 17,9 11,7 8,0 ZW 10,0 1029,5 67 - 459
11:58 17,9 11,5 8,0 ZW 8,0 1029,5 66 - 459
12:04 18,1 11,9 5,0 WZW 8,0 1029,5 67 - 432
12:09 18,2 11,7 11,0 WZW 13,0 1029,5 66 - 404
12:14 18,3 11,6 6,0 WZW 13,0 1029,5 65 - 403
12:19 18,4 11,5 3,0 ZW 11,0 1029,5 64 - 415
12:24 18,6 11,7 6,0 ZW 11,0 1029,5 64 - 425
12:29 18,7 11,4 8,0 ZZW 15,0 1029,5 63 - 543
12:34 18,9 11,5 8,0 ZZW 11,0 1029,5 63 - 612
12:39 19,2 11,6 10,0 ZW 10,0 1029,5 62 - 629
12:44 19,3 11,3 8,0 ZZW 15,0 1029,5 60 - 561
12:49 19,3 10,8 10,0 ZW 15,0 1029,1 58 - 540
12:54 19,4 11,1 10,0 ZW 13,0 1029,1 59 - 536
12:59 19,5 11,3 5,0 ZW 11,0 1029,1 59 - 504
13:04 19,6 11,4 6,0 ZW 11,0 1029,1 59 - 434
13:09 19,6 11,4 10,0 ZZW 11,0 1029,1 59 - 436
13:14 19,6 11,6 6,0 ZZW 13,0 1028,8 60 - 483
13:19 19,7 11,5 10,0 ZW 13,0 1028,8 59 - 499
13:24 19,7 11,5 11,0 WZW 15,0 1028,8 59 - 533
13:29 19,8 11,6 6,0 WZW 13,0 1028,5 59 - 533
13:34 19,8 11,6 6,0 ZW 16,0 1028,5 59 - 455
13:39 19,8 11,6 8,0 ZZW 10,0 1028,5 59 - 452
13:44 19,8 11,6 3,0 ZW 8,0 1028,5 59 - 485
13:49 19,9 11,6 8,0 Zuiden 10,0 1028,5 59 - 490
13:54 19,9 11,4 10,0 ZZW 11,0 1028,5 58 - 466
13:59 19,8 11,3 3,0 WZW 10,0 1028,5 58 - 457
14:04 19,8 11,3 11,0 ZW 11,0 1028,1 58 - 448
14:09 19,9 11,4 5,0 WZW 10,0 1028,1 58 - 457
14:14 20,2 11,6 5,0 WZW 11,0 1028,1 58 - 483
14:19 20,3 11,4 8,0 ZW 11,0 1028,1 57 - 533
14:24 20,3 11,2 8,0 ZW 11,0 1028,1 56 - 577
14:29 20,2 11,4 10,0 ZW 11,0 1028,1 57 - 584
14:34 20,3 11,2 6,0 WZW 13,0 1028,1 56 - 578
14:39 20,5 11,5 10,0 WZW 13,0 1027,8 57 - 571
14:44 20,6 11,5 10,0 WZW 13,0 1027,8 56 - 534
14:49 20,6 11,5 5,0 WZW 15,0 1027,8 56 - 522
14:54 20,6 11,5 6,0 WZW 11,0 1027,8 56 - 534
14:59 20,6 11,5 11,0 WZW 11,0 1027,4 56 - 496
15:04 20,7 11,5 5,0 WZW 15,0 1027,4 56 - 519
15:09 20,7 11,3 11,0 ZZW 15,0 1027,4 55 - 489
15:14 20,6 11,0 8,0 ZW 15,0 1027,4 54 - 461
15:19 20,6 11,2 11,0 ZW 13,0 1027,4 55 - 452
15:24 20,6 11,5 5,0 ZW 8,0 1027,4 56 - 457
15:29 20,7 11,5 10,0 WZW 11,0 1027,4 56 - 411
15:34 20,6 11,5 5,0 Westen 6,0 1027,4 56 - 376
15:39 20,4 11,3 1,0 WZW 5,0 1027,1 56 - 323
15:44 20,5 12,0 8,0 ZW 13,0 1027,1 58 - 366
15:49 20,6 11,7 3,0 WZW 11,0 1027,1 57 - 378
15:54 20,7 11,6 11,0 WZW 11,0 1027,1 56 - 350
15:59 20,7 11,6 11,0 WZW 11,0 1027,1 56 - 408
16:04 20,7 11,6 5,0 WZW 6,0 1027,1 56 - 408
16:09 20,7 11,3 5,0 WZW 11,0 1026,8 55 - 406
16:13 20,8 11,7 8,0 ZW 8,0 1026,8 56 - 432
16:19 21,1 11,8 5,0 ZW 10,0 1026,8 56 - 445
16:24 21,1 11,4 10,0 ZW 13,0 1026,8 54 - 446
16:29 21,3 11,9 6,0 WZW 8,0 1026,4 55 - 445
16:34 21,6 12,2 6,0 WZW 10,0 1026,4 55 - 403
16:39 21,7 12,2 3,0 ZW 6,0 1026,4 55 - 369
16:44 21,7 12,0 10,0 ZW 13,0 1026,8 54 - 355
16:49 21,6 11,8 5,0 WZW 6,0 1026,8 54 - 346
16:54 21,5 11,8 6,0 ZZW 8,0 1026,8 54 - 322
16:59 21,3 11,9 3,0 Zuiden 5,0 1026,4 55 - 318
17:04 21,5 11,8 3,0 ZW 5,0 1026,4 54 - 311
17:09 21,6 11,9 6,0 ZW 11,0 1026,4 54 - 301
17:14 21,4 11,9 3,0 WZW 10,0 1026,4 55 - 288
17:19 21,3 11,9 5,0 ZW 11,0 1026,1 55 - 299
17:24 21,3 11,9 1,0 ZW 6,0 1026,1 55 - 237
17:29 21,3 12,2 10,0 ZZW 11,0 1026,1 56 - 232
17:34 21,1 11,7 5,0 WZW 11,0 1026,1 56 - 111
17:39 20,8 11,6 6,0 ZW 8,0 1026,1 56 - 70
17:44 20,6 11,8 8,0 ZW 10,0 1026,1 57 - 100
17:49 20,3 11,2 6,0 ZZW 10,0 1026,1 56 - 79
17:54 20,1 11,3 3,0 ZW 8,0 1026,1 57 - 62
17:59 19,9 11,4 3,0 ZZW 8,0 1025,7 58 - 60
18:04 19,9 11,4 5,0 ZZW 8,0 1025,7 58 - 58
18:09 19,8 11,3 6,0 ZW 6,0 1025,7 58 - 56
18:14 19,7 11,2 8,0 ZW 10,0 1025,7 58 - 60
18:19 19,7 11,4 3,0 ZW 6,0 1025,7 59 - 51
18:24 19,6 11,4 5,0 ZW 8,0 1025,4 59 - 49
18:29 19,5 11,4 5,0 ZW 11,0 1025,4 60 - 46
18:34 19,4 11,6 3,0 ZW 5,0 1025,4 61 - 46
18:39 19,3 11,6 6,0 ZW 8,0 1025,4 61 - 47
18:44 19,3 11,6 1,0 WZW 6,0 1025,4 61 - 44
18:49 19,2 11,7 1,0 ZW 5,0 1025,4 62 - 47
18:54 19,2 11,7 3,0 ZZW 6,0 1025,4 62 - 47
18:59 19,2 11,7 3,0 ZZW 5,0 1025,4 62 - 44
19:04 19,1 11,9 3,0 ZZW 5,0 1025,4 63 - 47
19:09 19,1 11,9 3,0 ZZW 5,0 1025,4 63 - 40
19:14 19,2 12,0 1,0 ZW 3,0 1025,4 63 - 33
19:19 19,1 11,9 3,0 ZW 5,0 1025,4 63 - 26
19:24 18,9 11,9 1,0 ZW 2,0 1025,4 64 - 21
19:29 18,8 12,0 1,0 ZW 2,0 1025,4 65 - 18
19:34 18,6 12,1   Kalm   1025,4 66 - 14
19:39 18,3 12,1   Kalm   1025,4 67 - 9
19:44 18,1 11,9   Kalm 2,0 1025,1 68 - 7
19:49 17,8 12,0   Kalm   1025,4 69 - 5
19:54 17,6 11,9   Kalm   1025,4 70 - -
19:59 17,3 11,9   Kalm   1025,1 71 - -
20:04 16,9 11,7   Kalm   1025,4 72 - -
20:09 16,7 11,6   Kalm   1025,4 73 - -
20:14 16,3 11,6   Kalm   1025,1 74 - -
20:19 16,1 11,5   Kalm   1025,1 74 - -
20:24 15,8 11,4   Kalm   1025,1 76 - -
20:29 15,5 11,3   Kalm   1025,1 76 - -
20:34 15,2 11,2   Kalm   1025,1 77 - -
20:38 14,9 11,1   Kalm   1025,1 78 - -
20:44 14,7 11,1   Kalm   1025,1 79 - -
20:49 14,5 10,9   Kalm   1025,1 79 - -
20:54 14,3 10,9   Kalm   1025,1 80 - -
20:59 14,2 10,8 1,0 ZW 2,0 1025,1 81 - -
21:03 13,9 10,7 1,0 ZW 2,0 1025,1 81 - -
21:08 13,8 10,7 1,0 ZW 2,0 1025,1 82 - -
21:14 13,7 10,7   Kalm 2,0 1025,1 82 - -
21:19 13,6 10,7   Kalm   1024,7 83 - -
21:24 13,4 10,6   Kalm   1024,7 83 - -
21:29 13,2 10,6   Kalm   1024,7 84 - -
21:34 13,1 10,5   Kalm   1024,7 84 - -
21:39 13,1 10,5   Kalm   1024,7 84 - -
21:44 13,0 10,4   Kalm   1024,7 84 - -
21:49 13,0 10,4   Kalm   1024,7 84 - -
21:54 13,0 10,4   Kalm   1024,4 84 - -
21:59 13,0 10,4   Kalm   1024,4 84 - -
22:04 12,9 10,3   Kalm   1024,4 84 - -
22:09 12,9 10,3   Kalm   1024,7 84 - -
22:14 12,8 10,2   Kalm   1024,7 84 - -
22:19 12,7 10,1   Kalm   1024,7 84 - -
22:24 12,6 10,0   Kalm   1024,7 84 - -
22:29 12,4 9,9   Kalm   1024,4 85 - -
Dagelijkse Samenvatting Woensdag 22 september 2021
Tijd Temp. ( °C ) Dew pt. ( °C ) Wind ( km/h ) van Windvlaag ( km/h ) Luchtdruk ( hPa ) Humid.( % ) Rainrate ( cm ) Zonneschijn ( W/m2 )
Hoog21,7 12,2 11,0 ZW ( 338/699 ) 16,0 1030,8 97 - 629
Gemiddeld13,8 9,7 2,6 Kalm #147/270 4,1 1028,3 79 - 296 #147/270
Laag6,8 6,1 -   0,0 1024,4 54 -  
Dagelijkse Tabular details for Woensdag 22 september 2021
Tijd Temp. ( °C ) Dew pt. ( °C ) Wind ( km/h ) van Windvlaag ( km/h ) Luchtdruk ( hPa ) Humid.( % ) Rainrate ( cm ) Zonneschijn ( W/m2 )
00:04 10,3 8,6   Kalm   1030,8 89 - -
00:09 10,3 8,6   Kalm   1030,8 90 - -
00:14 10,2 8,6   Kalm   1030,5 90 - -
00:19 10,2 8,6   Kalm   1030,5 90 - -
00:24 10,1 8,5   Kalm   1030,5 90 - -
00:29 10,1 8,5   Kalm   1030,5 90 - -
00:34 9,9 8,5   Kalm   1030,5 91 - -
00:39 9,9 8,5   Kalm   1030,5 91 - -
00:44 9,8 8,4   Kalm   1030,5 91 - -
00:48 9,7 8,3   Kalm   1030,5 91 - -
00:54 9,7 8,3   Kalm   1030,5 91 - -
00:59 9,7 8,4   Kalm   1030,5 92 - -
01:04 9,6 8,2   Kalm   1030,5 91 - -
01:09 9,6 8,3   Kalm   1030,5 92 - -
01:14 9,4 8,2   Kalm   1030,5 92 - -
01:19 9,4 8,2   Kalm   1030,5 92 - -
01:24 9,3 8,1   Kalm   1030,5 92 - -
01:29 9,3 8,1   Kalm   1030,5 92 - -
01:34 9,3 8,1   Kalm   1030,5 92 - -
01:39 9,3 8,1   Kalm   1030,5 92 - -
01:44 9,2 8,1   Kalm   1030,1 93 - -
01:49 9,2 8,1   Kalm   1030,1 93 - -
01:54 9,1 7,9   Kalm   1030,1 92 - -
01:59 9,0 7,9   Kalm   1030,1 93 - -
02:04 8,9 7,8   Kalm   1029,8 93 - -
02:09 8,9 7,8   Kalm   1029,8 93 - -
02:14 8,9 7,8   Kalm   1030,1 93 - -
02:19 8,8 7,7   Kalm   1029,8 93 - -
02:24 8,8 7,7   Kalm   1029,8 93 - -
02:29 8,8 7,7   Kalm   1030,1 93 - -
02:34 8,7 7,6   Kalm   1029,8 93 - -
02:39 8,7 7,8   Kalm   1029,8 94 - -
02:44 8,6 7,7   Kalm   1029,8 94 - -
02:49 8,6 7,5   Kalm   1029,8 93 - -
02:54 8,4 7,5   Kalm   1029,8 94 - -
02:59 8,4 7,5   Kalm   1029,8 94 - -
03:04 8,4 7,5   Kalm   1029,8 94 - -
03:09 8,4 7,5   Kalm   1030,1 94 - -
03:14 8,3 7,4   Kalm   1030,1 94 - -
03:19 8,2 7,3   Kalm   1030,1 94 - -
03:24 8,2 7,3   Kalm   1030,1 94 - -
03:29 8,2 7,3   Kalm   1030,1 94 - -
03:34 8,1 7,2   Kalm   1030,1 94 - -
03:39 8,0 7,1   Kalm   1030,1 94 - -
03:44 7,9 7,0   Kalm   1029,8 94 - -
03:49 7,9 7,0   Kalm   1029,8 94 - -
03:54 7,9 7,0   Kalm   1029,8 94 - -
03:59 7,8 6,9   Kalm   1029,8 94 - -
04:04 7,8 6,9   Kalm   1029,8 94 - -
04:09 7,7 6,8   Kalm   1029,8 94 - -
04:14 7,7 6,8   Kalm   1029,8 94 - -
04:19 7,6 6,7   Kalm   1029,8 94 - -
04:24 7,6 6,7   Kalm   1029,8 94 - -
04:29 7,6 6,9   Kalm   1029,8 95 - -
04:34 7,5 6,8   Kalm   1029,8 95 - -
04:39 7,5 6,8   Kalm   1029,8 95 - -
04:44 7,6 6,9   Kalm   1029,5 95 - -
04:49 7,6 6,9   Kalm   1029,8 95 - -
04:54 7,5 6,8   Kalm   1029,5 95 - -
04:59 7,5 6,8   Kalm   1029,5 95 - -
05:04 7,6 6,9   Kalm   1029,5 95 - -
05:09 7,7 6,9   Kalm   1029,5 95 - -
05:14 7,6 6,9   Kalm   1029,5 95 - -
05:19 7,7 6,9   Kalm   1029,5 95 - -
05:24 7,7 6,9   Kalm   1029,5 95 - -
05:29 7,7 6,9   Kalm   1029,5 95 - -
05:34 7,6 6,9   Kalm   1029,5 95 - -
05:38 7,5 6,8   Kalm   1029,5 95 - -
05:44 7,5 6,8   Kalm   1029,5 95 - -
05:49 7,5 6,8   Kalm   1029,5 95 - -
05:54 7,5 6,8   Kalm   1029,5 95 - -
05:59 7,5 6,8   Kalm   1029,5 95 - -
06:04 7,4 6,7   Kalm   1029,5 95 - -
06:09 7,4 6,7   Kalm   1029,5 95 - -
06:14 7,4 6,8   Kalm   1029,5 96 - -
06:19 7,4 6,7   Kalm   1029,5 95 - -
06:23 7,3 6,6   Kalm   1029,5 95 - -
06:29 7,3 6,6   Kalm   1029,5 95 - -
06:34 7,4 6,8   Kalm   1029,5 96 - -
06:39 7,5 6,9   Kalm   1029,5 96 - -
06:44 7,6 7,0 3,0 WNW 3,0 1029,1 96 - -
06:49 7,6 7,0 3,0 WNW 3,0 1029,5 96 - -
06:54 7,6 7,0 3,0 WNW 3,0 1029,1 96 - -
06:59 7,5 6,9 1,0 WNW 2,0 1029,1 96 - -
07:04 7,4 6,7   Kalm 2,0 1029,5 95 - -
07:09 7,3 6,6   Kalm   1029,5 95 - -
07:14 7,3 6,6   Kalm   1029,5 95 - -
07:19 7,2 6,6   Kalm   1029,5 96 - -
07:24 7,2 6,6   Kalm   1029,5 96 - -
07:29 7,1 6,5   Kalm   1029,5 96 - -
07:34 7,1 6,5   Kalm   1029,5 96 - -
07:39 7,0 6,3   Kalm   1029,5 95 - 5
07:44 6,9 6,2   Kalm   1029,5 95 - 7
07:49 6,9 6,2   Kalm   1029,5 95 - 12
07:54 6,8 6,1   Kalm   1029,5 95 - 16
07:59 6,9 6,3   Kalm   1029,8 96 - 21
08:04 7,0 6,4 1,0 WNW 2,0 1029,8 96 - 26
08:09 7,1 6,5   Kalm 2,0 1029,8 96 - 33
08:14 7,2 6,6   Kalm   1029,5 96 - 46
08:19 7,4 7,0   Kalm   1029,5 97 - 56
08:24 7,7 7,3   Kalm   1029,5 97 - 60
08:29 7,9 7,5   Kalm   1029,5 97 - 63
08:34 8,1 7,7   Kalm   1029,5 97 - 83
08:39 8,4 8,0   Kalm   1029,5 97 - 104
08:44 8,8 8,3   Kalm   1029,5 97 - 118
08:49 8,9 8,4   Kalm   1029,5 97 - 137
08:54 9,2 8,7   Kalm   1029,5 97 - 165
08:59 9,4 8,9   Kalm   1029,5 97 - 167
09:04 9,7 9,2   Kalm   1029,5 97 - 178
09:09 9,9 9,4   Kalm 2,0 1029,5 97 - 169
09:14 10,2 9,7   Kalm 2,0 1029,5 97 - 181
09:19 10,4 9,9   Kalm   1029,5 97 - 186
09:24 10,7 10,1   Kalm   1029,5 97 - 218
09:29 10,9 10,3   Kalm   1029,5 96 - 241
09:34 11,2 10,6   Kalm   1029,5 96 - 218
09:39 11,5 10,7   Kalm   1029,5 96 - 200
09:44 11,7 10,8   Kalm   1029,8 95 - 192
09:49 12,1 11,2   Kalm   1029,8 94 - 206
09:54 12,3 11,2   Kalm   1029,8 93 - 241
09:59 12,6 11,2 3,0 ZW 3,0 1029,5 92 - 267
10:04 12,8 11,2 3,0 ZW 5,0 1029,5 91 - 218
10:09 13,1 11,0 3,0 ZW 5,0 1029,8 88 - 227
10:14 13,3 11,2 1,0 ZW 3,0 1029,5 87 - 278
10:19 13,7 11,6 5,0 ZW 5,0 1029,8 87 - 285
10:24 13,9 11,4 5,0 ZW 6,0 1029,8 85 - 232
10:29 14,2 11,5 3,0 ZW 5,0 1029,8 84 - 239
10:34 14,4 11,7 1,0 ZW 5,0 1029,8 84 - 360
10:39 14,7 11,8 5,0 ZW 5,0 1029,8 84 - 304
10:44 14,9 11,5 3,0 ZW 5,0 1029,8 81 - 380
10:49 15,3 11,7 3,0 ZW 5,0 1029,8 80 - 396
10:54 15,5 11,6 6,0 WZW 8,0 1029,8 78 - 343
10:59 15,7 11,5 3,0 WZW 8,0 1029,5 76 - 443
11:04 16,1 11,9 5,0 WZW 8,0 1029,5 76 - 501
11:09 16,4 11,8 8,0 ZW 11,0 1029,5 75 - 506
11:14 16,7 11,6 8,0 WZW 11,0 1029,5 72 - 432
11:19 16,8 11,6 8,0 ZZW 10,0 1029,5 72 - 475
11:24 17,0 11,5 5,0 ZW 11,0 1029,8 70 - 446
11:29 17,3 12,0 6,0 ZW 6,0 1029,5 71 - 468
11:34 17,6 11,9 8,0 WZW 11,0 1029,8 70 - 457
11:39 17,7 11,7 8,0 ZW 10,0 1029,8 68 - 443
11:44 17,8 11,6 8,0 WZW 11,0 1029,5 67 - 417
11:49 17,8 11,6 8,0 ZW 8,0 1029,5 67 - 418
11:54 17,9 11,7 8,0 ZW 10,0 1029,5 67 - 459
11:58 17,9 11,5 8,0 ZW 8,0 1029,5 66 - 459
12:04 18,1 11,9 5,0 WZW 8,0 1029,5 67 - 432
12:09 18,2 11,7 11,0 WZW 13,0 1029,5 66 - 404
12:14 18,3 11,6 6,0 WZW 13,0 1029,5 65 - 403
12:19 18,4 11,5 3,0 ZW 11,0 1029,5 64 - 415
12:24 18,6 11,7 6,0 ZW 11,0 1029,5 64 - 425
12:29 18,7 11,4 8,0 ZZW 15,0 1029,5 63 - 543
12:34 18,9 11,5 8,0 ZZW 11,0 1029,5 63 - 612
12:39 19,2 11,6 10,0 ZW 10,0 1029,5 62 - 629
12:44 19,3 11,3 8,0 ZZW 15,0 1029,5 60 - 561
12:49 19,3 10,8 10,0 ZW 15,0 1029,1 58 - 540
12:54 19,4 11,1 10,0 ZW 13,0 1029,1 59 - 536
12:59 19,5 11,3 5,0 ZW 11,0 1029,1 59 - 504
13:04 19,6 11,4 6,0 ZW 11,0 1029,1 59 - 434
13:09 19,6 11,4 10,0 ZZW 11,0 1029,1 59 - 436
13:14 19,6 11,6 6,0 ZZW 13,0 1028,8 60 - 483
13:19 19,7 11,5 10,0 ZW 13,0 1028,8 59 - 499
13:24 19,7 11,5 11,0 WZW 15,0 1028,8 59 - 533
13:29 19,8 11,6 6,0 WZW 13,0 1028,5 59 - 533
13:34 19,8 11,6 6,0 ZW 16,0 1028,5 59 - 455
13:39 19,8 11,6 8,0 ZZW 10,0 1028,5 59 - 452
13:44 19,8 11,6 3,0 ZW 8,0 1028,5 59 - 485
13:49 19,9 11,6 8,0 Zuiden 10,0 1028,5 59 - 490
13:54 19,9 11,4 10,0 ZZW 11,0 1028,5 58 - 466
13:59 19,8 11,3 3,0 WZW 10,0 1028,5 58 - 457
14:04 19,8 11,3 11,0 ZW 11,0 1028,1 58 - 448
14:09 19,9 11,4 5,0 WZW 10,0 1028,1 58 - 457
14:14 20,2 11,6 5,0 WZW 11,0 1028,1 58 - 483
14:19 20,3 11,4 8,0 ZW 11,0 1028,1 57 - 533
14:24 20,3 11,2 8,0 ZW 11,0 1028,1 56 - 577
14:29 20,2 11,4 10,0 ZW 11,0 1028,1 57 - 584
14:34 20,3 11,2 6,0 WZW 13,0 1028,1 56 - 578
14:39 20,5 11,5 10,0 WZW 13,0 1027,8 57 - 571
14:44 20,6 11,5 10,0 WZW 13,0 1027,8 56 - 534
14:49 20,6 11,5 5,0 WZW 15,0 1027,8 56 - 522
14:54 20,6 11,5 6,0 WZW 11,0 1027,8 56 - 534
14:59 20,6 11,5 11,0 WZW 11,0 1027,4 56 - 496
15:04 20,7 11,5 5,0 WZW 15,0 1027,4 56 - 519
15:09 20,7 11,3 11,0 ZZW 15,0 1027,4 55 - 489
15:14 20,6 11,0 8,0 ZW 15,0 1027,4 54 - 461
15:19 20,6 11,2 11,0 ZW 13,0 1027,4 55 - 452
15:24 20,6 11,5 5,0 ZW 8,0 1027,4 56 - 457
15:29 20,7 11,5 10,0 WZW 11,0 1027,4 56 - 411
15:34 20,6 11,5 5,0 Westen 6,0 1027,4 56 - 376
15:39 20,4 11,3 1,0 WZW 5,0 1027,1 56 - 323
15:44 20,5 12,0 8,0 ZW 13,0 1027,1 58 - 366
15:49 20,6 11,7 3,0 WZW 11,0 1027,1 57 - 378
15:54 20,7 11,6 11,0 WZW 11,0 1027,1 56 - 350
15:59 20,7 11,6 11,0 WZW 11,0 1027,1 56 - 408
16:04 20,7 11,6 5,0 WZW 6,0 1027,1 56 - 408
16:09 20,7 11,3 5,0 WZW 11,0 1026,8 55 - 406
16:13 20,8 11,7 8,0 ZW 8,0 1026,8 56 - 432
16:19 21,1 11,8 5,0 ZW 10,0 1026,8 56 - 445
16:24 21,1 11,4 10,0 ZW 13,0 1026,8 54 - 446
16:29 21,3 11,9 6,0 WZW 8,0 1026,4 55 - 445
16:34 21,6 12,2 6,0 WZW 10,0 1026,4 55 - 403
16:39 21,7 12,2 3,0 ZW 6,0 1026,4 55 - 369
16:44 21,7 12,0 10,0 ZW 13,0 1026,8 54 - 355
16:49 21,6 11,8 5,0 WZW 6,0 1026,8 54 - 346
16:54 21,5 11,8 6,0 ZZW 8,0 1026,8 54 - 322
16:59 21,3 11,9 3,0 Zuiden 5,0 1026,4 55 - 318
17:04 21,5 11,8 3,0 ZW 5,0 1026,4 54 - 311
17:09 21,6 11,9 6,0 ZW 11,0 1026,4 54 - 301
17:14 21,4 11,9 3,0 WZW 10,0 1026,4 55 - 288
17:19 21,3 11,9 5,0 ZW 11,0 1026,1 55 - 299
17:24 21,3 11,9 1,0 ZW 6,0 1026,1 55 - 237
17:29 21,3 12,2 10,0 ZZW 11,0 1026,1 56 - 232
17:34 21,1 11,7 5,0 WZW 11,0 1026,1 56 - 111
17:39 20,8 11,6 6,0 ZW 8,0 1026,1 56 - 70
17:44 20,6 11,8 8,0 ZW 10,0 1026,1 57 - 100
17:49 20,3 11,2 6,0 ZZW 10,0 1026,1 56 - 79
17:54 20,1 11,3 3,0 ZW 8,0 1026,1 57 - 62
17:59 19,9 11,4 3,0 ZZW 8,0 1025,7 58 - 60
18:04 19,9 11,4 5,0 ZZW 8,0 1025,7 58 - 58
18:09 19,8 11,3 6,0 ZW 6,0 1025,7 58 - 56
18:14 19,7 11,2 8,0 ZW 10,0 1025,7 58 - 60
18:19 19,7 11,4 3,0 ZW 6,0 1025,7 59 - 51
18:24 19,6 11,4 5,0 ZW 8,0 1025,4 59 - 49
18:29 19,5 11,4 5,0 ZW 11,0 1025,4 60 - 46
18:34 19,4 11,6 3,0 ZW 5,0 1025,4 61 - 46
18:39 19,3 11,6 6,0 ZW 8,0 1025,4 61 - 47
18:44 19,3 11,6 1,0 WZW 6,0 1025,4 61 - 44
18:49 19,2 11,7 1,0 ZW 5,0 1025,4 62 - 47
18:54 19,2 11,7 3,0 ZZW 6,0 1025,4 62 - 47
18:59 19,2 11,7 3,0 ZZW 5,0 1025,4 62 - 44
19:04 19,1 11,9 3,0 ZZW 5,0 1025,4 63 - 47
19:09 19,1 11,9 3,0 ZZW 5,0 1025,4 63 - 40
19:14 19,2 12,0 1,0 ZW 3,0 1025,4 63 - 33
19:19 19,1 11,9 3,0 ZW 5,0 1025,4 63 - 26
19:24 18,9 11,9 1,0 ZW 2,0 1025,4 64 - 21
19:29 18,8 12,0 1,0 ZW 2,0 1025,4 65 - 18
19:34 18,6 12,1   Kalm   1025,4 66 - 14
19:39 18,3 12,1   Kalm   1025,4 67 - 9
19:44 18,1 11,9   Kalm 2,0 1025,1 68 - 7
19:49 17,8 12,0   Kalm   1025,4 69 - 5
19:54 17,6 11,9   Kalm   1025,4 70 - -
19:59 17,3 11,9   Kalm   1025,1 71 - -
20:04 16,9 11,7   Kalm   1025,4 72 - -
20:09 16,7 11,6   Kalm   1025,4 73 - -
20:14 16,3 11,6   Kalm   1025,1 74 - -
20:19 16,1 11,5   Kalm   1025,1 74 - -
20:24 15,8 11,4   Kalm   1025,1 76 - -
20:29 15,5 11,3   Kalm   1025,1 76 - -
20:34 15,2 11,2   Kalm   1025,1 77 - -
20:38 14,9 11,1   Kalm   1025,1 78 - -
20:44 14,7 11,1   Kalm   1025,1 79 - -
20:49 14,5 10,9   Kalm   1025,1 79 - -
20:54 14,3 10,9   Kalm   1025,1 80 - -
20:59 14,2 10,8 1,0 ZW 2,0 1025,1 81 - -
21:03 13,9 10,7 1,0 ZW 2,0 1025,1 81 - -
21:08 13,8 10,7 1,0 ZW 2,0 1025,1 82 - -
21:14 13,7 10,7   Kalm 2,0 1025,1 82 - -
21:19 13,6 10,7   Kalm   1024,7 83 - -
21:24 13,4 10,6   Kalm   1024,7 83 - -
21:29 13,2 10,6   Kalm   1024,7 84 - -
21:34 13,1 10,5   Kalm   1024,7 84 - -
21:39 13,1 10,5   Kalm   1024,7 84 - -
21:44 13,0 10,4   Kalm   1024,7 84 - -
21:49 13,0 10,4   Kalm   1024,7 84 - -
21:54 13,0 10,4   Kalm   1024,4 84 - -
21:59 13,0 10,4   Kalm   1024,4 84 - -
22:04 12,9 10,3   Kalm   1024,4 84 - -
22:09 12,9 10,3   Kalm   1024,7 84 - -
22:14 12,8 10,2   Kalm   1024,7 84 - -
22:19 12,7 10,1   Kalm   1024,7 84 - -
22:24 12,6 10,0   Kalm   1024,7 84 - -
22:29 12,4 9,9   Kalm   1024,4 85 - -

Download your copy of this data-set  here

Our weather-data as stored at Weather Underground. Script ontwikkeld door Jim McMurry. Aangepast voor de template door Leuven-Template.eu

U vindt ons ook hier:

Het Weer Aktueel

UK Metoffice

WeatherCloud

Weather Underground

Benelux Weer Netwerk

AWEKAS

Apparatuur in gebruik:

Weerstation
Davis Vantage Pro2

Weerprogramma
Meteobridge

Weercomputer
TP-Link TL-MR3020

Webleverancier
One.com

Davis Vantage Pro2

Meteobridge

TP-Link TL-MR3020

One.com